User: anonymous   Login
Location: Archemont
(49.1579°N, 1.7598°E)
Time: 04:38:19
(UTC+00:00)
Language:

Spot 1 - Orbit

View from above orbital plane
View from above orbital plane
View from above satellite
View from above satellite

Ground track
Ground track

The orbit data is extracted from the following two-line orbital elements,

1 16613U 86019A   23151.53789938  .00000787  00000-0  13334-3 0  9994
2 16613  98.7510 358.9663 0140961 136.7491 224.4882 14.66181031647661
Epoch (UTC): 31 May 2023 12:54:34
Eccentricity: 0.0140961
inclination: 98.7510°
perigee height: 574 km
apogee height: 772 km
right ascension of ascending node: 358.9663°
argument of perigee: 136.7491°
revolutions per day: 14.66181031
mean anomaly at epoch: 224.4882°
orbit number at epoch: 64766

The dashed part of the orbit path shows where the satellite is in the earth's shadow,  

DLR